Location: Newark
(44.1667°N, 8.2500°E)
Time: 11:28:03
(UTC+00:00)

Vanguard 2 - Pass Details

Date: 10 December 2019
Orbit: 553 x 2938 km, 32.9° (Epoch: 18 January)

Event Time Altitude Azimuth Distance (km) Brightness Sun altitude
Exits shadow 01:51:46 49° 144° (SE) 3,518 10.6 -52.3°
Drops below altitude 10° 02:05:33 10° 96° (E) 5,456 12.3 -50.0°
Sets 02:09:33 0° 92° (E) 6,266 12.8 -49.3°
